GFSWCAN_925_temp_159.txt.gz
Temp
10 10 9 9 8 8 7 7 7 7 7 7 7 7 8 8 8 8 8 8 8 8 8 11 12 12 11 11 12 12 14 14 13 15 15 15 15 16 17 18 19 17 17 16 16 18 20 19 21 24 18 17 21 21
10 9 8 8 8 7 7 7 7 7 7 7 7 7 7 8 8 8 8 8 8 8 8 11 11 12 12 12 11 11 12 12 13 13 13 13 15 15 14 16 16 17 16 16 16 17 18 18 19 19 17 16 19 19
8 8 8 8 8 7 7 7 7 7 7 7 7 7 7 7 8 8 7 8 8 6 7 7 10 13 14 13 13 11 10 13 13 12 12 12 15 13 15 15 18 16 15 15 16 18 17 18 18 18 17 17 17 18
8 8 8 8 7 7 7 7 7 7 7 7 7 7 7 8 8 8 7 8 7 7 9 8 12 13 14 13 13 13 14 13 12 12 15 13 14 14 14 15 15 15 15 15 14 16 17 18 18 18 17 18 18 18
8 8 8 7 7 7 7 7 7 7 7 7 7 7 7 8 8 8 8 8 8 8 8 8 10 13 14 14 13 13 13 11 12 12 12 14 13 14 13 13 14 15 15 15 15 16 16 17 18 17 17 17 17 17
8 8 7 7 7 7 7 7 7 7 7 7 7 7 7 7 8 8 8 9 8 8 9 9 9 9 13 15 16 13 13 13 14 14 14 13 13 14 13 13 16 16 16 15 17 18 18 17 17 17 16 17 18 17
8 8 7 7 7 7 7 7 7 7 7 7 8 8 8 7 7 7 8 9 9 9 9 10 8 12 14 15 13 13 13 13 13 13 13 13 16 14 13 15 15 15 15 15 15 15 16 17 17 18 16 17 17 17
7 7 7 7 7 7 7 7 7 7 7 7 7 8 8 7 7 7 11 11 10 8 8 10 9 10 14 13 13 10 12 11 12 14 13 12 12 13 13 14 14 16 16 17 17 16 17 16 16 16 17 17 18 18
7 7 7 7 7 7 7 7 7 7 7 8 8 8 8 8 7 10 11 11 11 9 10 10 10 11 11 11 10 11 10 12 10 12 11 12 12 13 14 14 14 15 16 17 17 16 15 15 17 16 17 17 17 17
7 7 7 7 7 7 7 7 7 7 8 8 8 8 9 10 10 10 10 9 9 9 7 9 10 10 11 10 11 11 10 11 12 12 12 12 12 14 14 14 13 15 15 15 15 15 15 15 16 16 15 16 16 17
7 7 7 7 7 7 7 7 7 8 8 9 8 9 9 9 10 9 10 10 10 11 10 9 10 12 13 13 13 10 11 11 14 13 15 15 14 14 14 14 14 13 14 15 15 15 15 15 16 16 16 16 16 16
7 6 7 6 7 7 7 7 7 8 8 7 7 7 8 8 10 10 12 11 11 13 12 12 13 12 12 11 12 12 13 12 14 14 14 15 15 15 14 15 14 14 14 15 16 16 17 15 15 16 15 16 16 16
6 6 7 7 7 7 7 7 7 7 8 8 7 8 9 10 9 12 13 12 12 12 12 13 13 12 12 13 12 13 14 14 14 14 13 14 14 14 14 15 14 15 15 15 15 15 16 15 15 15 15 15 16 15
6 7 7 7 7 7 7 7 7 7 7 7 9 8 10 10 12 14 14 14 12 11 11 10 11 12 12 14 13 14 15 14 13 13 14 14 14 14 15 15 13 14 15 15 15 15 15 14 15 15 15 15 15 15
7 7 7 8 7 7 7 7 7 7 7 8 9 9 9 11 12 14 14 13 12 11 11 12 11 11 12 13 13 14 14 14 13 15 14 14 14 14 14 14 13 13 13 14 14 14 15 14 15 14 15 16 15 15
7 7 7 7 7 7 7 7 7 7 7 7 7 8 10 10 12 13 13 12 12 10 11 11 12 13 14 13 14 14 13 14 15 14 14 13 13 14 14 13 13 13 13 13 13 13 14 14 15 16 16 14 14 15
7 7 7 7 7 7 7 7 7 7 7 8 7 7 8 9 9 12 13 13 11 13 14 12 13 14 13 12 13 13 14 14 14 14 13 13 13 13 13 13 13 14 13 13 13 14 14 14 16 16 16 15 15 16
7 7 7 7 7 7 7 7 7 8 9 8 8 8 8 9 10 10 11 12 13 13 12 14 13 13 14 14 14 14 13 13 13 13 13 13 13 13 13 13 14 13 13 14 13 14 13 13 14 15 16 16 15 16
6 7 7 7 7 7 7 8 7 8 8 8 8 9 9 11 12 11 11 11 12 12 12 13 14 14 13 13 13 13 14 14 14 14 12 13 14 13 14 14 14 14 14 14 13 13 14 14 15 15 15 15 15 16
7 8 8 8 7 7 8 10 10 8 8 10 11 12 11 12 11 10 11 13 12 13 14 13 13 13 13 15 14 14 15 13 12 13 14 13 13 13 13 13 13 14 14 14 14 15 14 14 15 15 16 16 16 16
8 8 8 8 8 7 6 7 8 8 9 9 9 10 11 10 11 11 11 9 11 11 12 11 12 12 15 15 15 14 12 12 13 13 13 13 13 13 13 14 14 14 13 13 13 14 14 14 14 15 16 15 15 14
8 8 8 7 7 9 7 8 7 7 8 9 9 11 12 11 10 10 10 11 11 12 10 12 12 14 13 13 13 14 14 14 14 14 14 13 12 13 13 13 13 12 13 12 13 13 13 14 14 14 14 14 14 15
8 8 8 8 8 7 7 8 9 11 12 12 12 13 13 14 12 10 12 11 11 11 12 12 12 14 13 14 15 14 15 14 13 12 13 13 14 14 13 13 13 13 13 13 14 13 13 14 13 14 14 14 14 14
8 8 8 9 9 7 8 9 10 12 13 13 12 14 14 13 12 12 13 12 11 11 11 11 11 12 13 13 13 13 14 14 14 14 15 14 13 13 14 14 14 14 14 15 14 13 13 13 13 13 13 13 13 13
6 7 6 5 6 8 11 13 13 12 12 12 13 14 13 12 13 14 14 13 13 12 12 12 11 11 12 13 13 14 15 16 14 13 15 16 15 15 15 14 15 15 17 16 14 14 13 14 13 14 13 13 13 12
7 7 6 10 11 10 12 11 13 13 12 13 14 13 12 12 13 14 13 12 12 12 12 12 12 12 13 13 13 14 16 16 17 14 15 16 16 14 12 12 12 15 17 17 16 15 15 14 14 14 14 13 13 13
7 8 7 7 10 11 11 11 10 10 12 14 11 12 12 13 14 12 11 11 11 12 12 12 12 12 12 12 14 16 17 18 18 17 17 17 17 17 17 15 13 15 16 17 17 17 15 14 13 13 13 13 13 12
8 9 10 10 9 9 11 11 12 13 13 11 11 12 12 12 12 11 10 12 11 12 13 14 15 14 15 14 14 16 18 18 17 17 16 17 17 17 17 17 17 17 17 17 16 16 15 15 14 13 12 11 11 12
7 8 11 11 12 11 12 12 13 11 9 10 11 11 11 10 10 10 12 12 12 12 13 14 14 15 15 14 15 16 17 18 16 13 12 11 11 15 16 17 17 17 17 16 16 16 15 14 13 13 12 12 11 11
8 8 11 11 12 13 11 10 10 9 8 9 9 9 10 10 12 13 12 12 13 13 13 13 14 15 13 13 12 13 15 16 16 15 12 12 13 15 16 16 16 15 15 15 14 13 13 13 13 13 13 12 12 12
8 8 10 9 10 9 9 8 8 9 9 9 8 10 10 10 11 12 12 13 14 14 15 13 13 13 13 13 13 12 11 14 15 16 16 16 16 16 15 15 15 15 15 14 14 14 13 13 12 12 12 12 12 11
9 9 9 9 9 8 8 8 8 8 9 10 10 10 11 11 12 12 15 15 15 14 14 14 13 12 13 13 14 14 14 14 15 15 16 16 15 15 15 15 15 14 14 14 14 13 13 12 12 12 12 12 12 12
9 8 8 9 9 9 9 10 10 11 11 11 11 11 11 12 14 14 17 17 17 16 15 15 14 14 14 14 14 14 14 14 14 15 15 15 15 15 15 14 14 14 13 13 13 13 13 12 12 12 12 12 12 12

GFSWCAN_925_temp_162.txt.gz
Temp
11 10 10 9 9 8 8 7 7 7 7 7 6 6 7 7 7 8 8 8 8 8 7 9 11 11 11 10 11 11 12 12 12 14 14 14 14 15 16 17 17 16 16 15 14 17 18 18 20 22 18 16 17 18
10 9 9 8 8 8 7 7 7 7 7 6 6 6 7 7 7 7 7 8 7 7 7 9 10 11 12 12 9 9 10 11 11 12 12 12 14 13 14 15 16 16 15 15 15 16 16 17 18 18 17 16 16 16
9 8 8 8 8 8 7 7 7 7 7 6 6 6 7 7 7 7 7 7 7 5 6 6 8 12 11 11 12 9 9 11 11 10 11 11 13 12 14 13 16 16 14 15 16 18 18 17 17 17 17 16 17 17
8 8 8 8 8 7 7 7 7 7 7 7 7 7 7 7 7 7 7 7 7 6 8 7 11 12 13 13 12 12 12 11 10 10 12 11 13 13 13 14 13 14 14 15 14 15 16 18 17 18 17 17 17 17
8 8 8 8 8 7 7 7 7 7 7 7 7 7 7 8 7 8 7 7 7 7 7 7 9 12 12 12 11 11 11 9 9 11 12 12 11 12 11 12 12 13 14 14 16 14 15 15 17 17 16 17 17 17
8 8 8 7 7 7 7 7 7 7 7 7 7 7 7 7 7 7 8 8 7 7 8 9 8 9 11 13 11 9 10 8 9 10 11 13 14 14 13 11 14 14 13 14 16 15 15 16 16 17 16 16 16 17
8 8 7 7 7 7 7 7 7 7 7 7 7 7 7 7 7 6 8 8 8 7 8 8 7 11 12 12 11 11 11 10 10 12 11 14 14 13 13 14 16 14 14 14 14 15 15 16 15 17 16 16 16 16
8 7 7 7 7 7 7 7 7 7 7 7 7 7 7 7 7 7 10 10 8 8 7 9 8 9 12 12 12 9 11 9 11 13 10 12 12 11 12 14 14 14 14 14 14 14 16 16 15 16 16 16 16 16
7 7 7 7 7 7 7 7 7 7 7 7 8 8 7 7 7 9 10 10 9 9 9 9 10 9 9 10 9 10 9 11 9 11 10 11 11 12 13 13 14 14 15 16 16 15 15 15 15 15 15 16 16 16
7 7 7 6 6 6 7 7 7 7 7 8 8 8 9 9 9 9 9 9 8 8 7 8 9 10 11 10 10 11 9 10 11 11 10 10 11 12 13 13 12 12 13 13 14 15 15 15 15 15 15 16 16 16
7 7 6 6 6 6 6 7 7 8 8 8 7 8 9 9 9 9 10 10 10 10 9 9 10 10 12 12 12 10 10 10 13 12 14 14 14 14 15 14 14 13 13 13 13 14 14 15 15 15 15 15 16 16
7 6 6 6 6 7 7 7 7 8 7 6 6 7 7 8 9 10 12 11 11 13 11 11 11 9 11 11 11 11 12 11 13 13 14 15 14 14 14 14 14 14 13 14 15 14 15 15 15 15 15 15 16 16
6 6 6 6 7 7 7 7 7 7 7 7 7 8 9 9 10 12 12 12 12 12 12 11 11 11 11 11 12 12 14 14 13 13 13 13 13 14 14 14 14 15 15 15 15 15 15 15 15 15 14 15 16 16
6 6 6 7 7 7 7 7 7 7 7 7 9 8 10 9 11 12 12 13 13 11 10 10 11 12 12 13 13 13 14 14 12 11 12 13 13 13 13 14 14 14 14 14 14 14 14 15 15 15 15 15 15 15
6 7 7 7 7 7 7 7 7 7 6 8 9 9 8 10 10 12 13 12 13 10 11 11 10 11 12 13 13 13 13 12 12 13 12 13 13 13 13 13 13 13 13 13 13 13 14 15 14 15 15 15 14 15
7 7 7 7 7 7 7 7 7 7 6 7 7 7 8 8 11 12 13 12 11 9 10 11 12 12 13 12 13 13 13 13 14 14 14 13 13 13 13 13 13 13 12 12 12 13 13 14 14 14 15 16 14 14
6 7 7 7 7 7 7 7 7 7 7 7 7 6 6 7 9 11 12 12 9 11 13 12 13 13 12 12 13 13 14 14 13 13 13 12 12 13 13 13 13 13 13 12 12 13 13 13 14 14 14 15 14 14
6 6 7 7 7 7 7 7 6 7 7 7 7 7 6 7 8 10 11 11 10 12 11 14 13 13 13 14 14 13 13 13 13 12 13 12 12 12 13 13 13 13 13 13 12 13 12 13 14 14 15 14 14 15
6 6 7 7 7 7 7 7 6 7 7 7 6 6 7 8 7 9 9 10 9 11 12 12 13 14 13 13 13 13 14 13 13 13 13 12 12 12 13 13 13 13 13 13 13 13 13 13 14 14 14 15 15 15
6 7 8 7 7 7 7 9 8 8 7 8 9 10 11 10 10 9 9 9 10 11 12 12 12 12 12 14 14 14 14 12 11 12 13 13 13 12 12 12 12 13 13 14 14 14 14 14 14 14 15 15 15 15
7 7 8 8 7 7 5 6 7 7 7 7 7 9 11 9 9 9 9 7 10 10 11 12 11 12 11 12 13 12 12 12 12 12 12 12 13 12 12 12 13 13 12 12 13 13 13 13 12 13 14 14 14 14
7 7 7 7 7 8 7 7 6 6 7 7 7 10 11 12 10 9 8 10 10 10 9 10 10 11 11 12 11 13 13 13 13 13 13 13 13 12 12 12 12 12 13 13 13 13 13 13 13 13 13 13 13 14
7 7 7 7 8 7 6 7 8 10 10 11 11 12 13 13 12 10 11 10 12 10 10 10 11 12 12 13 13 14 14 14 12 12 13 13 12 11 12 12 12 13 13 13 13 13 13 13 13 13 13 13 13 13
7 7 7 8 8 7 7 8 9 10 11 11 12 14 13 12 12 12 13 12 12 11 11 11 10 11 12 12 13 12 13 14 14 14 14 13 12 11 13 13 13 13 13 12 12 12 12 12 13 13 12 12 12 11
6 7 5 5 6 8 9 11 12 11 12 12 12 13 12 11 12 13 12 12 12 12 12 12 12 11 12 13 12 13 14 15 13 12 13 14 14 15 14 14 14 14 14 14 12 12 12 13 12 12 12 12 11 11
6 7 5 8 8 8 10 11 12 12 11 12 13 12 12 12 13 11 10 11 11 12 12 12 12 12 12 12 11 12 13 15 16 13 14 15 15 13 12 11 12 14 15 15 15 13 12 12 11 11 11 11 11 11
8 7 6 5 8 9 10 9 9 9 11 13 11 11 12 13 13 12 11 10 10 11 11 11 11 11 11 12 13 14 15 16 17 15 15 15 16 16 16 14 14 15 15 16 16 15 14 12 11 11 11 11 11 11
7 7 8 8 8 7 10 10 10 12 12 11 11 12 12 12 12 10 10 11 11 11 11 12 13 13 13 13 13 14 16 16 16 15 16 15 15 16 16 16 16 16 16 16 15 15 14 13 12 12 11 11 11 11
6 6 8 9 9 9 9 10 11 10 9 9 11 10 10 9 10 10 11 11 11 12 12 12 13 13 12 12 14 15 15 16 15 13 12 11 12 14 15 15 15 15 15 14 14 14 14 13 13 12 12 11 11 11
6 6 8 9 10 11 10 8 9 8 8 8 9 9 9 10 11 12 12 12 12 12 12 12 13 13 11 12 12 13 15 16 16 15 12 12 13 14 15 14 14 14 14 14 13 12 13 12 12 12 11 11 11 11
6 6 8 8 9 8 8 7 7 7 8 8 8 9 10 10 11 12 12 12 13 13 13 13 13 13 13 12 12 12 12 14 15 16 16 15 15 15 15 14 14 14 14 13 13 13 12 12 12 11 11 11 11 11
7 8 8 9 8 7 7 8 8 8 8 9 10 10 10 11 12 12 13 14 13 12 13 12 12 11 13 13 14 14 15 15 15 15 15 15 15 14 14 14 14 14 13 13 13 12 12 12 11 11 11 11 11 11
7 7 7 8 8 9 8 9 10 10 10 11 11 12 12 12 15 13 15 15 15 15 14 13 13 13 13 13 14 14 14 14 14 14 14 14 14 14 14 13 13 13 13 13 12 12 12 11 11 11 11 11 11 11

GFSWCAN_925_temp_165.txt.gz
Temp
11 11 10 10 9 9 8 8 8 7 7 7 7 6 7 7 7 7 8 7 8 10 11 11 13 14 14 14 15 16 17 16 17 18 19 19 19 20 20 21 22 22 22 22 21 21 21 21 22 23 22 22 21 21
10 9 9 9 8 8 8 8 7 7 7 7 6 6 7 7 7 7 7 7 7 8 11 9 10 11 12 14 14 13 14 14 16 17 16 16 18 18 18 20 19 20 21 21 21 23 20 20 21 22 21 20 21 21
9 9 9 8 8 8 8 7 7 7 7 7 7 7 7 7 7 7 7 7 7 7 9 9 13 11 10 11 13 14 14 15 15 15 17 17 17 17 18 19 19 19 18 19 19 22 21 21 22 21 21 21 21 21
8 8 8 8 8 8 8 7 7 7 7 7 7 7 7 7 7 7 7 7 7 8 8 13 11 12 12 12 11 12 15 13 14 15 17 18 18 18 19 19 18 20 18 19 19 20 21 22 21 21 21 21 21 21
8 8 8 8 8 8 7 7 7 7 7 7 7 7 7 7 8 7 7 7 6 8 9 12 12 12 11 11 11 11 12 13 14 15 16 17 18 17 18 17 18 20 19 18 19 20 19 19 21 21 20 20 21 21
8 8 8 8 8 7 7 7 7 7 7 7 7 7 7 7 7 7 10 7 7 6 7 11 12 12 13 12 12 12 12 13 13 15 16 17 18 17 18 18 19 20 20 20 19 20 20 19 20 20 20 20 21 21
8 8 8 8 7 7 7 7 7 7 7 7 7 7 7 7 7 8 9 7 7 7 8 10 13 14 12 13 13 13 12 13 14 14 14 16 18 16 18 17 19 20 19 19 19 19 18 18 19 20 20 20 20 20
8 8 7 7 7 7 7 7 7 7 7 7 7 7 7 7 7 7 9 9 7 7 8 11 13 13 13 14 15 13 15 14 15 16 16 17 17 16 17 19 19 18 18 18 18 18 18 19 20 19 19 19 20 20
8 7 7 7 7 7 7 7 7 7 7 7 8 8 7 7 8 8 9 9 8 9 10 11 12 13 14 15 13 14 13 15 15 16 16 16 17 16 18 18 18 18 18 18 17 18 18 18 19 19 20 19 20 20
7 7 7 7 7 7 7 7 7 7 8 8 8 8 10 8 9 8 8 9 9 9 9 10 11 10 11 13 13 15 13 15 15 17 14 14 17 18 17 16 16 16 17 17 16 17 18 18 19 19 20 20 20 20
7 7 7 7 7 7 7 7 7 8 8 8 8 10 8 9 9 9 10 10 10 10 11 11 10 11 13 13 13 14 14 14 14 15 15 16 15 15 14 14 14 16 16 17 17 17 17 17 18 18 19 19 19 19
7 7 7 6 7 7 7 7 7 8 7 6 6 6 7 10 10 10 12 11 11 13 13 12 14 12 13 13 11 13 14 13 14 14 13 15 15 14 13 13 13 14 15 15 17 17 17 17 18 18 18 18 19 19
7 7 7 7 7 7 7 7 7 7 7 7 7 9 10 10 10 12 13 13 13 13 13 14 14 14 12 11 13 13 14 14 13 13 13 13 13 13 12 13 14 15 16 17 17 17 17 17 17 17 17 17 18 18
6 6 7 7 7 7 7 7 7 7 7 8 10 8 11 11 12 13 14 14 15 14 14 12 13 13 13 13 13 13 14 13 12 11 12 12 12 12 13 14 15 15 16 16 16 16 17 17 17 16 16 18 18 18
6 7 7 7 7 7 7 7 7 7 6 9 9 10 11 13 13 13 14 13 14 13 13 14 14 13 13 13 13 14 14 12 12 13 12 13 14 13 13 14 14 14 15 16 16 16 16 17 16 16 17 17 16 17
7 7 7 7 7 7 7 7 7 7 7 8 8 9 12 11 14 14 15 14 14 13 13 13 14 13 13 12 13 12 13 12 12 13 14 13 13 13 13 14 14 15 15 16 16 16 16 16 16 16 15 16 17 16
7 7 7 7 7 7 7 7 6 8 8 7 9 9 10 11 12 13 14 14 13 13 15 14 14 13 13 13 13 13 13 14 13 14 13 13 13 13 13 13 14 15 15 16 15 15 14 15 15 16 17 17 16 15
6 6 7 7 7 7 7 6 7 8 8 10 10 12 10 11 13 13 14 14 15 14 14 15 14 13 13 15 15 14 14 16 15 14 15 15 15 14 14 14 15 15 14 15 14 15 15 17 17 17 16 14 15 16
6 7 7 7 7 7 8 7 7 9 11 11 11 11 11 12 13 13 14 14 13 13 14 13 15 15 15 15 16 17 18 17 16 15 15 15 15 14 14 15 15 14 14 14 13 14 15 15 16 14 14 15 15 15
6 7 7 7 7 7 8 9 7 9 11 12 11 12 12 14 14 14 14 14 14 14 14 15 16 16 16 18 17 16 16 15 14 16 17 17 15 14 14 14 15 14 13 13 14 14 14 13 14 15 14 14 16 15
7 7 7 7 7 6 8 9 10 11 11 11 12 10 12 12 13 14 15 13 14 16 16 16 17 18 16 15 15 13 13 14 14 14 14 14 14 13 13 13 13 13 14 14 14 14 13 13 13 14 14 14 14 14
7 7 7 7 7 8 8 8 9 10 10 12 12 12 12 12 13 14 13 14 15 16 15 15 16 15 15 15 14 13 13 13 14 13 14 14 13 13 14 13 13 14 13 13 13 14 14 13 13 13 13 13 14 14
7 7 7 7 8 7 8 8 9 11 11 13 13 13 13 12 13 10 13 13 13 13 13 13 13 13 13 13 14 14 13 14 13 13 14 14 13 12 13 12 12 13 13 13 13 13 12 12 12 13 13 13 13 13
7 7 8 8 9 9 10 10 10 11 13 13 13 13 13 12 13 13 14 13 12 13 13 13 13 14 14 15 13 13 14 14 14 13 14 15 16 13 14 14 13 14 13 13 13 12 12 12 13 13 12 12 11 11
6 7 7 5 8 10 10 12 13 13 13 13 13 13 12 12 12 13 11 11 11 12 13 13 12 13 14 13 13 14 14 15 15 15 13 13 17 18 17 16 15 14 15 15 15 14 14 13 12 12 13 12 12 11
6 8 7 9 10 10 12 12 12 13 13 12 13 13 12 12 12 11 11 10 11 11 11 12 12 12 12 13 15 16 15 15 14 17 15 15 16 18 18 18 18 16 15 16 16 15 15 15 14 14 14 13 13 13
8 9 9 9 10 11 12 12 12 12 12 12 13 13 12 13 13 12 12 11 10 10 10 11 11 11 12 13 13 13 14 15 15 15 14 14 14 14 15 17 17 14 14 15 15 15 14 14 14 13 13 13 13 12
9 9 10 10 10 11 12 12 12 13 13 13 12 12 13 13 13 12 11 10 10 10 11 11 11 11 12 12 12 14 14 14 15 15 15 15 14 14 14 13 14 14 14 13 14 14 14 14 13 13 13 12 12 12
9 10 10 11 11 11 11 12 13 12 11 12 13 13 14 13 12 12 11 11 11 12 11 13 14 13 12 12 14 14 15 17 18 17 17 17 18 15 13 13 13 13 12 13 13 13 13 13 12 12 12 11 11 11
10 10 11 11 12 13 13 12 12 11 11 11 12 12 11 11 11 12 11 11 11 12 13 12 12 14 14 16 15 14 14 15 17 18 17 17 16 14 13 13 13 13 13 13 12 12 12 12 12 12 12 12 12 12
9 9 10 11 12 12 12 11 10 10 10 11 11 11 11 10 11 12 11 12 13 13 12 14 14 13 15 15 15 16 16 14 15 15 15 15 14 14 13 13 13 13 13 13 13 13 13 13 13 12 12 12 12 12
9 10 11 11 12 11 9 10 11 10 11 11 11 10 10 11 12 14 13 13 14 14 14 14 15 14 12 12 13 14 14 14 14 14 15 14 14 14 13 13 13 13 13 13 13 13 13 13 13 12 12 12 12 12
10 10 10 10 11 11 11 10 11 11 11 11 12 12 12 13 16 16 14 14 14 15 14 12 12 12 13 13 13 14 15 15 15 14 14 14 14 13 13 13 12 12 12 12 12 12 12 12 12 12 12 12 11 11

GFSWCAN_925_temp_168.txt.gz
Temp
11 10 10 10 10 9 9 8 8 8 8 8 7 7 7 7 7 8 11 9 11 15 17 17 17 17 19 19 20 21 21 21 22 22 23 24 23 24 24 24 24 24 25 25 25 24 24 27 27 25 26 26 25 25
10 10 9 9 9 8 8 8 8 8 8 8 7 7 7 7 7 8 11 9 9 11 16 14 14 15 16 17 18 19 20 19 21 21 21 22 22 23 23 23 25 23 25 25 26 26 25 25 25 25 25 25 25 25
9 9 9 9 9 8 8 8 8 8 7 8 7 7 7 8 8 7 9 9 10 13 16 16 18 15 14 14 15 17 20 20 20 19 21 22 20 23 22 23 22 23 24 22 23 25 25 26 25 25 24 24 24 25
9 9 9 9 8 8 8 8 8 8 7 7 7 7 7 7 8 8 9 10 9 12 13 18 15 16 16 15 15 15 18 18 19 19 20 21 21 22 21 22 22 23 21 22 23 24 24 24 25 24 24 24 24 24
8 8 8 8 8 8 8 7 8 7 7 7 7 7 7 7 8 8 9 9 9 11 14 16 16 17 16 15 15 16 16 17 18 18 18 19 20 20 22 22 21 23 22 22 22 23 23 23 23 23 23 23 24 24
8 8 8 8 8 8 7 7 7 7 7 7 7 7 7 7 8 9 13 10 9 9 9 14 18 18 17 16 16 17 17 17 18 16 18 19 21 20 19 20 22 23 23 23 22 23 23 23 23 23 23 23 23 24
8 8 8 8 8 8 7 7 7 7 7 7 7 7 7 7 8 11 12 9 8 7 9 14 18 19 16 16 16 16 16 17 17 18 19 20 21 19 19 18 22 22 22 22 23 22 21 22 22 23 23 23 22 23
8 8 8 8 7 7 7 7 7 7 7 7 7 7 7 7 8 11 10 9 7 8 11 13 18 19 18 19 18 19 17 17 18 19 20 19 19 18 18 21 22 22 22 21 22 21 21 22 22 22 23 23 22 23
8 8 8 7 7 7 7 7 7 7 7 8 8 8 8 9 11 10 9 9 8 10 11 14 17 17 19 18 19 19 19 18 20 18 19 19 19 17 20 21 21 21 20 21 21 22 21 21 22 22 22 23 23 23
8 7 7 7 7 7 7 7 7 8 8 8 9 12 13 11 9 9 9 9 10 11 11 14 15 13 16 18 17 17 18 17 17 18 19 19 20 21 20 17 17 18 18 18 18 19 20 21 22 22 23 23 23 24
7 7 7 7 7 7 7 7 8 8 9 11 12 13 11 10 10 11 12 11 13 12 15 17 17 17 18 15 15 15 17 19 17 18 17 18 18 15 15 14 14 14 15 16 18 19 20 20 20 21 22 22 22 23
7 7 7 7 7 7 7 7 8 9 9 9 8 8 10 13 12 12 12 14 14 15 15 14 16 17 17 15 12 13 15 16 15 13 13 15 15 14 13 13 14 14 16 16 16 17 18 20 20 20 20 20 21 21
7 7 7 7 7 7 7 7 7 7 8 8 10 11 12 14 12 12 15 16 15 15 16 17 17 16 15 12 12 13 13 14 14 14 14 13 13 13 13 13 13 15 16 17 18 19 20 20 19 19 19 20 20 20
7 7 7 7 7 7 7 7 7 7 9 11 12 10 14 14 15 17 16 16 17 18 18 18 17 15 13 13 14 13 14 13 13 11 12 13 13 13 14 14 14 15 16 17 19 19 19 19 19 19 19 17 20 20
7 7 7 7 7 7 7 7 7 8 9 11 13 11 15 17 17 17 17 18 18 19 18 18 17 16 14 13 14 14 14 13 12 12 14 14 13 13 13 14 14 14 15 18 18 18 19 19 18 17 19 20 20 20
7 7 7 7 7 7 7 7 8 8 9 11 12 14 16 16 18 18 18 18 19 18 19 17 17 15 13 13 13 14 13 12 14 15 15 14 13 13 13 13 14 14 15 17 17 17 17 17 18 17 17 19 19 20
7 8 7 7 7 7 7 8 7 9 9 9 13 15 15 16 16 18 18 18 18 18 18 17 14 14 14 14 15 14 14 17 17 18 18 17 17 16 15 15 16 15 16 16 16 16 15 15 16 19 20 19 19 19
7 7 7 7 7 7 8 9 9 10 9 13 14 16 16 16 16 17 18 18 18 18 18 17 16 14 15 16 17 17 18 20 18 18 18 18 17 16 16 16 16 14 15 15 16 16 17 18 18 18 15 17 17 17
7 7 7 7 7 9 9 9 10 12 14 16 16 16 16 16 17 17 18 18 18 17 17 17 15 16 17 19 20 20 19 18 18 18 16 17 16 15 15 16 15 15 15 14 16 16 16 16 15 17 17 16 16 16
6 7 7 7 7 10 11 11 10 12 14 15 16 16 16 16 18 18 18 18 18 18 17 18 19 20 20 20 20 19 16 16 17 17 17 17 14 14 14 14 14 14 14 14 15 14 14 16 16 16 15 16 15 14
7 7 8 7 9 9 12 13 13 14 15 15 16 15 15 15 14 17 18 19 18 18 18 19 20 21 20 19 17 16 15 15 15 15 16 16 15 14 13 13 14 13 14 14 14 14 14 14 14 14 14 14 15 16
7 7 8 8 10 10 11 12 13 14 14 16 16 16 15 14 14 17 18 18 19 19 19 19 19 17 18 17 17 16 15 14 15 17 17 16 16 14 14 13 14 14 14 13 13 13 13 13 13 14 14 14 14 14
7 7 9 9 10 9 10 11 12 14 14 15 16 14 15 12 14 15 15 16 16 15 14 16 16 15 16 16 16 16 16 16 15 17 17 15 14 17 17 17 16 15 14 13 12 12 13 12 12 12 12 12 11 11
7 9 10 10 11 11 13 13 14 15 16 16 16 13 14 14 15 16 16 14 13 12 13 15 16 17 16 15 13 13 16 16 17 19 19 20 20 20 19 19 18 15 14 14 13 14 16 16 16 15 14 12 11 10
7 9 10 8 12 12 13 14 15 16 15 16 14 13 12 14 13 13 12 13 11 11 11 14 14 16 13 13 15 17 17 19 19 20 19 20 20 20 20 19 18 19 19 19 18 18 17 16 16 16 15 13 12 12
8 10 8 12 13 13 14 14 14 14 15 12 13 14 13 12 13 13 14 13 12 12 11 13 13 13 13 15 17 17 18 17 19 20 18 19 19 21 21 20 20 18 18 18 18 18 18 17 17 17 17 16 15 16
9 11 13 13 13 14 15 16 16 15 14 12 15 15 14 13 13 13 13 12 12 11 10 10 11 12 15 17 16 17 18 18 18 18 18 18 18 18 18 18 18 17 17 17 17 17 17 17 16 16 16 16 16 15
12 12 13 14 14 15 15 15 15 15 15 15 15 14 14 15 14 14 13 10 10 10 11 11 10 11 14 15 17 18 18 18 18 19 19 18 18 17 17 16 15 15 15 16 17 17 16 16 16 16 15 15 15 15
12 13 13 14 14 15 14 15 16 15 15 15 14 15 16 16 14 13 11 11 11 11 11 12 13 15 15 16 16 18 19 20 20 20 20 20 19 18 17 17 16 16 15 14 14 14 14 14 15 15 15 14 14 14
13 14 14 14 14 14 16 15 15 15 15 15 15 16 16 15 11 11 11 11 11 14 15 15 15 16 17 19 19 18 18 19 20 20 20 19 18 17 17 16 16 16 16 15 15 14 13 15 14 15 15 15 15 15
13 13 13 14 14 16 16 16 15 14 14 15 16 14 15 11 11 11 12 14 15 16 16 18 18 18 19 19 20 20 18 18 17 17 18 17 17 16 16 16 16 16 16 16 16 15 16 15 15 15 15 14 14 14
13 13 14 14 15 15 14 14 15 14 15 14 14 13 12 11 13 16 15 15 16 17 16 18 19 18 17 17 17 17 17 17 17 17 17 16 15 15 16 16 16 15 15 15 15 15 15 15 15 15 15 14 14 14
13 13 14 14 14 14 14 13 14 14 13 12 12 11 12 16 16 17 16 16 17 18 18 17 16 15 15 16 16 15 15 14 14 14 14 14 14 14 15 15 15 15 15 15 15 15 15 14 14 14 14 14 13 13

GFSWCAN_925_temp_171.txt.gz
Temp
10 10 10 10 10 9 9 9 9 8 8 8 8 8 7 8 8 9 15 12 14 19 21 21 21 20 22 23 23 24 24 25 25 24 25 26 27 27 27 27 27 27 25 26 27 26 26 31 31 29 28 28 28 28
10 10 10 9 9 9 8 8 8 8 8 8 8 8 8 8 8 9 15 13 13 14 19 17 17 18 19 20 21 22 23 23 24 24 26 26 26 27 26 25 28 25 27 27 27 26 25 27 27 28 28 27 28 27
9 9 9 9 9 9 8 8 8 8 8 8 8 8 8 8 8 8 11 12 13 17 19 21 22 20 18 18 18 20 22 23 23 23 23 24 23 25 24 24 25 25 26 24 23 27 27 24 26 27 28 27 27 27
9 9 9 9 9 9 8 8 8 8 8 8 8 8 8 8 8 8 11 13 13 16 18 22 19 19 19 19 19 19 20 21 22 22 22 23 23 25 24 24 24 26 25 24 23 24 25 27 26 26 26 26 26 26
9 9 9 9 8 8 8 8 8 8 8 8 8 8 7 8 8 9 12 13 12 13 17 19 20 21 20 19 19 19 19 20 21 21 22 22 23 23 23 24 24 25 25 24 25 25 25 24 25 25 24 24 25 25
9 9 9 9 8 8 8 8 8 8 8 8 7 7 7 8 8 10 15 12 12 12 13 17 21 21 20 20 19 20 20 21 21 21 22 23 24 22 20 22 24 25 25 25 24 25 26 26 26 26 25 25 25 25
9 9 9 8 8 8 8 8 8 8 7 7 7 7 7 8 8 13 13 11 11 10 12 16 22 22 20 20 21 21 21 21 21 21 21 21 21 20 20 20 22 24 24 24 25 25 24 25 24 25 25 25 24 25
8 8 8 8 8 8 8 8 8 7 8 8 8 8 8 8 9 10 12 10 10 11 13 15 21 21 21 21 17 19 20 21 20 20 21 20 20 19 18 21 22 22 23 24 24 24 24 24 24 24 24 25 24 25
8 8 8 8 8 8 8 8 8 8 8 8 8 8 9 10 14 13 10 9 9 11 13 15 18 18 22 21 21 20 16 17 19 19 19 20 21 19 21 20 18 18 18 19 21 23 24 24 23 24 24 24 24 24
8 8 8 8 8 8 7 8 8 8 9 9 9 12 13 14 11 10 10 11 13 13 13 15 20 19 20 20 19 19 19 17 18 20 20 19 20 16 16 17 17 17 19 19 19 20 20 20 21 21 22 24 25 25
8 8 8 8 7 7 7 8 8 9 10 11 13 13 14 12 13 13 13 13 15 15 16 19 19 18 19 17 16 17 16 17 16 16 16 16 16 14 15 14 14 14 16 18 19 20 20 20 20 21 22 22 23 23
8 8 7 7 7 7 8 8 9 9 11 10 10 12 14 15 15 15 16 16 17 18 18 20 20 19 17 17 16 14 14 15 16 14 14 14 15 14 14 14 13 13 14 14 17 20 21 20 21 20 20 21 22 22
7 7 7 7 7 7 8 8 8 8 9 11 12 13 15 14 14 15 17 18 19 19 19 20 19 18 16 13 13 13 14 15 15 14 14 15 15 13 13 13 14 14 15 16 18 19 20 20 20 20 20 21 21 21
7 7 7 7 7 8 8 8 8 8 8 13 13 10 16 16 18 18 18 18 20 19 19 21 18 16 14 13 14 13 15 14 14 12 14 18 14 14 14 13 14 15 16 17 18 19 20 20 20 21 20 20 20 21
7 7 7 8 8 7 8 8 8 8 12 13 15 12 18 20 20 19 19 19 19 19 21 20 17 18 15 14 14 14 14 14 13 14 15 15 15 14 13 14 14 14 15 17 18 18 20 20 20 20 19 19 18 20
7 8 8 7 7 7 8 8 8 10 13 15 15 17 19 20 20 18 18 18 20 21 20 19 17 17 14 15 15 16 15 14 17 17 18 17 17 16 16 15 15 15 15 16 17 18 19 20 20 19 19 19 20 21
7 10 8 8 8 8 8 8 11 12 14 12 16 18 19 19 20 18 18 18 20 20 18 19 16 17 15 16 16 16 17 18 19 19 18 16 16 16 16 17 15 15 16 17 17 17 18 18 18 18 18 19 20 21
7 7 8 8 8 8 9 9 11 12 11 16 17 20 20 20 19 20 20 20 20 19 19 18 20 17 17 18 18 19 20 18 17 18 17 17 16 16 16 15 14 16 16 15 16 17 16 16 19 20 19 18 18 19
7 8 8 8 8 9 10 11 12 13 17 19 19 20 20 20 20 20 20 19 20 20 20 20 18 18 18 19 20 22 20 15 17 17 17 17 15 15 15 14 14 15 15 14 14 16 15 15 17 17 18 16 14 15
7 7 7 8 8 11 12 13 13 14 15 16 18 18 18 18 19 19 21 21 20 19 18 19 20 20 20 21 22 20 16 16 17 18 17 17 14 13 14 14 14 14 14 15 15 14 14 15 15 14 15 15 14 15
7 9 8 8 10 11 12 14 14 15 17 17 18 18 19 19 18 18 19 21 21 20 20 21 22 23 22 21 19 18 16 16 17 17 16 17 15 14 14 14 14 13 13 13 13 13 13 14 14 14 14 14 14 13
8 9 10 10 11 12 14 15 16 16 17 18 18 18 18 18 18 17 17 20 21 20 19 19 19 19 19 18 17 17 16 17 18 19 16 16 18 17 15 15 14 14 13 12 13 13 12 12 12 11 12 12 11 11
8 9 10 11 12 11 11 15 14 14 14 16 19 18 18 17 18 19 17 18 18 18 18 16 17 17 17 16 17 16 17 18 19 20 20 20 18 17 16 16 15 13 14 13 14 13 13 13 12 11 11 11 11 11
8 9 11 12 13 12 15 14 17 16 17 18 17 16 17 16 17 16 17 16 17 17 16 14 15 17 17 17 14 15 19 20 21 21 21 21 22 21 19 19 20 18 19 19 19 19 17 14 14 13 13 13 12 10
8 10 11 8 14 13 14 15 17 17 17 17 16 14 12 15 15 16 15 16 17 14 12 14 16 16 14 17 18 19 20 21 21 22 21 21 20 21 22 21 21 21 20 20 20 20 19 18 18 17 15 14 12 13
9 12 9 13 14 14 16 16 16 17 16 16 15 16 16 13 14 14 16 15 16 12 12 14 14 13 17 16 17 19 20 20 21 21 21 21 20 20 22 22 22 20 20 20 20 20 19 19 19 19 18 17 17 17
9 12 15 15 15 15 16 16 17 17 12 13 15 16 16 14 14 14 17 15 15 14 13 12 11 14 17 19 20 20 21 20 20 20 20 20 20 20 20 20 19 19 19 19 19 19 19 19 18 18 18 18 18 17
13 13 14 16 16 16 15 17 17 17 16 17 17 17 16 16 16 17 17 12 10 10 12 12 11 14 17 18 20 21 21 21 20 21 21 21 20 20 19 18 17 16 16 16 17 18 18 18 18 18 17 17 17 17
12 15 15 14 16 16 16 17 17 16 17 17 17 17 17 18 17 16 12 11 11 11 11 12 12 14 18 18 19 20 21 21 21 21 21 21 21 20 19 19 18 18 17 15 15 15 15 16 17 17 17 17 17 16
15 17 15 15 15 15 17 18 17 17 17 17 18 18 18 17 11 10 10 11 11 11 13 14 16 18 19 20 20 20 21 21 21 22 22 21 20 19 19 19 18 18 18 18 18 16 14 16 16 17 17 17 17 17
17 17 16 15 16 18 19 19 18 17 18 18 18 17 17 12 11 11 11 12 15 17 17 17 19 18 19 20 20 21 21 20 19 19 20 19 19 18 18 18 18 18 18 18 18 18 18 18 17 17 16 16 16 16
16 16 16 16 17 18 18 17 17 18 18 18 16 16 15 12 13 14 16 16 17 17 18 20 21 21 21 21 20 20 20 19 19 18 18 18 18 18 18 18 18 18 18 18 17 17 17 17 17 17 16 16 15 15
17 17 17 17 17 16 16 16 16 16 15 13 12 12 12 13 16 18 18 17 17 20 20 20 20 19 19 19 18 17 16 15 15 15 15 15 15 15 17 17 17 17 17 17 17 17 16 16 16 16 15 15 15 15